This demonstration page uses our WeatherBlox Daily Observations layout. Learn more.

Left ArrowRight Arrow

Hourly Observations for June 12, 2017

Temp ( °F °C ) Dew Point ( °F °C ) Humidity (%) Winds ( mph kmh ) Pressure ( in mb ) Visibility ( mi km ) Precip ( " mm )
12:07 am 00:07 Mostly Cloudy 75 24 61 16 61 61 S 8 13 30.00 1016 10 16 N/A
12:27 am 00:27 Partly Cloudy 75 24 61 16 61 61 SSW 8 13 30.00 1016 10 16 N/A
12:47 am 00:47 Partly Cloudy 75 24 61 16 61 61 SSW 10 17 30.00 1016 10 16 N/A
1:06 am 01:06 Clear 75 24 61 16 61 61 S 9 15 30.00 1016 10 16 N/A
1:27 am 01:27 Clear 73 23 61 16 65 65 S 7 11 30.00 1016 10 16 N/A
1:46 am 01:46 Clear 73 23 61 16 65 65 SSW 6 9 30.03 1017 10 16 N/A
2:07 am 02:07 Clear 73 23 61 16 65 65 SSW 6 9 30.03 1017 10 16 N/A
2:27 am 02:27 Clear 72 22 61 16 69 69 SSW 6 9 30.03 1017 10 16 N/A
2:46 am 02:46 Clear 72 22 61 16 69 69 SSW 5 7 30.03 1017 10 16 N/A
3:07 am 03:07 Clear 72 22 61 16 69 69 SSW 5 7 30.03 1017 10 16 N/A
3:26 am 03:26 Clear 70 21 61 16 73 73 S 5 7 30.06 1018 10 16 N/A
3:47 am 03:47 Clear 70 21 61 16 73 73 S 5 7 30.06 1018 10 16 N/A
4:06 am 04:06 Clear 70 21 61 16 73 73 S 5 7 30.06 1018 10 16 N/A
4:27 am 04:27 Clear 68 20 61 16 78 78 S 5 7 30.06 1018 10 16 N/A
4:47 am 04:47 Clear 68 20 61 16 78 78 S 3 6 30.06 1018 10 16 N/A
5:06 am 05:06 Partly Cloudy 68 20 61 16 78 78 S 6 9 30.06 1018 10 16 N/A
5:26 am 05:26 Partly Cloudy 68 20 61 16 78 78 S 6 9 30.06 1018 10 16 N/A
5:47 am 05:47 Partly Cloudy 68 20 63 17 83 83 S 7 11 30.06 1018 10 16 N/A
6:07 am 06:07 Partly Cloudy 68 20 63 17 83 83 S 7 11 30.06 1018 10 16 N/A
6:26 am 06:26 Partly Cloudy 68 20 63 17 83 83 S 8 13 30.06 1018 10 16 N/A
6:47 am 06:47 Sunny 68 20 63 17 83 83 S 8 13 30.09 1019 10 16 N/A
7:06 am 07:06 Sunny 70 21 63 17 78 78 S 7 11 30.09 1019 10 16 N/A
7:27 am 07:27 Sunny 70 21 63 17 78 78 S 8 13 30.09 1019 10 16 N/A
7:47 am 07:47 Sunny 72 22 63 17 73 73 S 8 13 30.06 1018 10 16 N/A
8:07 am 08:07 Sunny 72 22 63 17 73 73 SSW 8 13 30.06 1018 10 16 N/A
8:27 am 08:27 Sunny 73 23 64 18 74 74 SSW 8 13 30.06 1018 10 16 N/A
8:46 am 08:46 Sunny 75 24 64 18 69 69 SW 8 13 30.06 1018 10 16 N/A
9:07 am 09:07 Sunny 77 25 64 18 65 65 SW 8 13 30.09 1019 10 16 N/A
9:27 am 09:27 Partly Cloudy 79 26 64 18 61 61 SSW 9 15 30.06 1018 10 16 N/A
9:47 am 09:47 Sunny 81 27 66 19 62 62 SSW 7 11 30.06 1018 10 16 N/A
10:06 am 10:06 Sunny 81 27 64 18 58 58 SSW 7 11 30.06 1018 10 16 N/A
10:27 am 10:27 Sunny 82 28 64 18 55 55 SW 10 17 30.06 1018 10 16 N/A
10:47 am 10:47 Sunny 84 29 64 18 51 51 WSW 13 20 30.06 1018 10 16 N/A
11:06 am 11:06 Sunny 84 29 66 19 55 55 SW 15 24 30.06 1018 10 16 N/A
11:27 am 11:27 Partly Cloudy 86 30 66 19 52 52 WSW 10 17 30.06 1018 10 16 N/A
11:46 am 11:46 Mostly Cloudy 86 30 66 19 52 52 WSW 13 20 30.06 1018 10 16 N/A
12:07 pm 12:07 Partly Cloudy 86 30 66 19 52 52 SW 10 17 30.06 1018 10 16 N/A
12:26 pm 12:26 Partly Cloudy 88 31 66 19 49 49 SW 14 22 30.06 1018 10 16 N/A
12:47 pm 12:47 Partly Cloudy 88 31 66 19 49 49 SW 20 31 30.03 1017 10 16 N/A
1:07 pm 13:07 Partly Cloudy 88 31 64 18 46 46 WSW 13 20 30.03 1017 10 16 N/A
1:26 pm 13:26 Partly Cloudy 88 31 63 17 43 43 WSW 17 28 30.03 1017 10 16 N/A
1:47 pm 13:47 Partly Cloudy 90 32 64 18 43 43 SW 16 26 30.00 1016 10 16 N/A
2:06 pm 14:06 Partly Cloudy 90 32 64 18 43 43 SW 13 20 30.00 1016 10 16 N/A
2:27 pm 14:27 Sunny 90 32 64 18 43 43 SSW 13 20 30.00 1016 10 16 N/A
2:47 pm 14:47 Partly Cloudy 90 32 64 18 43 43 WSW 14 22 29.97 1015 10 16 N/A
3:06 pm 15:06 Partly Cloudy 90 32 64 18 43 43 SW 14 22 29.97 1015 10 16 N/A
3:27 pm 15:27 Partly Cloudy 91 33 64 18 41 41 SW 16 26 29.97 1015 10 16 N/A
3:46 pm 15:46 Partly Cloudy 91 33 64 18 41 41 SW 16 26 29.97 1015 10 16 N/A
4:07 pm 16:07 Sunny 91 33 64 18 41 41 SW 16 26 29.97 1015 10 16 N/A
4:26 pm 16:26 Partly Cloudy 91 33 64 18 41 41 SW 14 22 29.94 1014 10 16 N/A
4:47 pm 16:47 Partly Cloudy 91 33 64 18 41 41 SSW 13 20 29.94 1014 10 16 N/A
5:07 pm 17:07 Partly Cloudy 91 33 64 18 41 41 WSW 14 22 29.94 1014 10 16 N/A
5:26 pm 17:26 Partly Cloudy 91 33 64 18 41 41 SW 14 22 29.94 1014 10 16 N/A
5:47 pm 17:47 Partly Cloudy 91 33 64 18 41 41 SW 17 28 29.94 1014 10 16 N/A
6:07 pm 18:07 Partly Cloudy 90 32 64 18 43 43 SW 9 15 29.91 1013 10 16 N/A
6:26 pm 18:26 Partly Cloudy 91 33 64 18 41 41 WSW 13 20 29.91 1013 10 16 N/A
6:47 pm 18:47 Sunny 90 32 66 19 46 46 WSW 13 20 29.91 1013 10 16 N/A
7:06 pm 19:06 Sunny 91 33 64 18 41 41 WSW 13 20 29.91 1013 10 16 N/A
7:27 pm 19:27 Sunny 90 32 66 19 46 46 SW 14 22 29.91 1013 10 16 N/A
7:46 pm 19:46 Sunny 90 32 64 18 43 43 SW 13 20 29.91 1013 10 16 N/A
8:07 pm 20:07 Sunny 90 32 64 18 43 43 SSW 10 17 29.91 1013 10 16 N/A
8:26 pm 20:26 Sunny 88 31 66 19 49 49 SW 12 19 29.91 1013 10 16 N/A
8:47 pm 20:47 Sunny 88 31 66 19 49 49 SSW 7 11 29.91 1013 10 16 N/A
9:07 pm 21:07 Sunny 86 30 66 19 52 52 SSW 9 15 29.94 1014 10 16 N/A
9:26 pm 21:26 Clear 84 29 66 19 55 55 SSW 6 9 29.94 1014 10 16 N/A
9:47 pm 21:47 Clear 84 29 66 19 55 55 SSW 6 9 29.94 1014 10 16 N/A
10:06 pm 22:06 Clear 82 28 68 20 62 62 SSW 6 9 29.97 1015 10 16 N/A
10:27 pm 22:27 Clear 82 28 66 19 58 58 SSW 3 6 29.97 1015 10 16 N/A
10:46 pm 22:46 Clear 81 27 66 19 62 62 S 3 6 29.97 1015 10 16 N/A
11:07 pm 23:07 Partly Cloudy 81 27 66 19 62 62 S 3 6 30.00 1016 10 16 N/A
11:26 pm 23:26 Partly Cloudy 81 27 66 19 62 62 SSW 5 7 30.00 1016 10 16 N/A
11:47 pm 23:47 Partly Cloudy 81 27 68 20 66 66 SSW 5 7 30.00 1016 10 16 N/A

Powered by AerisWeather